• Join FlightAware (Why Join?)
  • Login
  • US Flag 
06:44AM EDT


 

Airport Tracker/Info


-or-


 

Live Flight TrackerFlight Track Log ✈ FDX1570 ✈ 31-Aug-2013 ✈ KMEM - KALB

Flight Track Log - Related Links

Times and Time Zones

All times are in EDT time to prevent confusion due to time zone crossing. See the FDX1570 flight status page for this flight to view local times or setup timezone preferences in your user account.

Time Position Orientation Groundspeed Altitude Reporting Facility
EDT Latitude Longitude Course Direction KTS MPH feet Rate Location/Type
04:33AM 35.0167 -89.9667 180° South 164 189 1,400  Level KMEM
04:34AM 34.9833 -89.9667 180° South 186 214 2,700 1,860 Climbing KMEM
04:35AM 34.9500 -89.9167 129° Southeast 273 314 4,400 2,640 Climbing KMEM
04:36AM 34.9833 -89.8500 59° Northeast 291 335 7,500 3,420 Climbing KMEM
04:36AM 34.9997 -89.7917 71° East 286 329 9,500 2,160 Climbing Memphis Center
04:37AM 35.0389 -89.6925 64° Northeast 310 357 10,900 1,740 Climbing Memphis Center
04:38AM 35.0758 -89.5858 67° East 350 403 13,000 2,160 Climbing Memphis Center
04:39AM 35.1231 -89.4583 66° East 391 450 15,300 2,400 Climbing Memphis Center
04:40AM 35.1719 -89.3258 66° East 416 479 17,800 2,400 Climbing Memphis Center
04:41AM 35.2208 -89.1903 66° East 428 493 20,200 2,340 Climbing Memphis Center
04:42AM 35.2842 -89.0572 60° Northeast 438 504 22,500 2,100 Climbing Memphis Center
04:43AM 35.3536 -88.9186 58° Northeast 461 531 24,500 1,980 Climbing Memphis Center
04:49AM 35.8390 -88.0810 58° Northeast 469 540 36,600 1,920 Climbing FlightAware
04:50AM 35.8870 -88.0000 54° Northeast 466 536 37,600 1,560 Climbing FlightAware
04:50AM 35.9230 -87.9380 54° Northeast 462 532 38,400 1,260 Climbing FlightAware
04:51AM 35.9690 -87.8590 54° Northeast 456 525 39,000 480 Climbing FlightAware
04:52AM 36.0140 -87.7820 54° Northeast 452 520 39,000  Level FlightAware
04:52AM 36.0550 -87.7120 54° Northeast 455 524 39,000  Level FlightAware
04:53AM 36.0980 -87.6380 54° Northeast 458 527 39,000  Level FlightAware
04:53AM 36.1430 -87.5610 54° Northeast 464 534 39,000  Level FlightAware
04:54AM 36.1870 -87.4850 54° Northeast 466 536 39,000  Level FlightAware
04:54AM 36.2330 -87.4040 55° Northeast 468 539 39,000  Level FlightAware
04:55AM 36.2730 -87.3360 54° Northeast 470 541 39,000  Level FlightAware
04:56AM 36.3190 -87.2550 55° Northeast 471 542 39,000  Level FlightAware
04:56AM 36.3640 -87.1780 54° Northeast 471 542 39,000  Level FlightAware
04:57AM 36.4070 -87.1030 55° Northeast 471 542 39,000  Level FlightAware
04:57AM 36.4540 -87.0210 55° Northeast 471 542 39,000  Level FlightAware
04:58AM 36.4980 -86.9440 55° Northeast 471 542 39,000  Level FlightAware
04:59AM 36.5440 -86.8620 55° Northeast 470 541 39,000  Level FlightAware
04:59AM 36.5810 -86.7980 54° Northeast 471 542 39,000  Level FlightAware
05:00AM 36.6257 -86.7182 55° Northeast 472 543 39,000  Level FlightAware ADS-B
05:00AM 36.6720 -86.6380 54° Northeast 472 543 39,000  Level FlightAware
05:01AM 36.7150 -86.5600 55° Northeast 472 543 39,000  Level FlightAware
05:01AM 36.7620 -86.4760 55° Northeast 473 544 39,000  Level FlightAware
05:02AM 36.8020 -86.4060 54° Northeast 473 544 39,000  Level FlightAware
05:03AM 36.8489 -86.3213 55° Northeast 474 545 39,000  Level FlightAware ADS-B
05:03AM 36.8882 -86.2515 55° Northeast 475 547 39,000  Level FlightAware ADS-B
05:04AM 36.9266 -86.1840 55° Northeast 476 548 39,000  Level FlightAware ADS-B
05:04AM 36.9643 -86.1163 55° Northeast 478 550 39,000  Level FlightAware ADS-B
05:05AM 37.0032 -86.0459 55° Northeast 478 550 39,000  Level FlightAware ADS-B
05:05AM 37.0459 -85.9686 55° Northeast 479 551 39,000  Level FlightAware ADS-B
05:06AM 37.0849 -85.8980 55° Northeast 478 550 39,000  Level FlightAware ADS-B
05:06AM 37.1240 -85.8276 55° Northeast 477 549 39,000  Level FlightAware ADS-B
05:07AM 37.1619 -85.7593 55° Northeast 477 549 39,000  Level FlightAware ADS-B
05:07AM 37.2007 -85.6885 55° Northeast 479 551 39,000  Level FlightAware ADS-B
05:08AM 37.2395 -85.6176 55° Northeast 480 552 39,000  Level FlightAware ADS-B
05:08AM 37.2777 -85.5485 55° Northeast 482 555 39,000  Level FlightAware ADS-B
05:09AM 37.3159 -85.4768 56° Northeast 484 557 39,000  Level FlightAware ADS-B
05:09AM 37.3544 -85.4072 55° Northeast 485 558 39,000  Level FlightAware ADS-B
05:10AM 37.3937 -85.3351 56° Northeast 485 558 39,000  Level FlightAware ADS-B
05:10AM 37.4327 -85.2628 56° Northeast 485 558 39,000  Level FlightAware ADS-B
05:11AM 37.4706 -85.1928 56° Northeast 486 559 39,000  Level FlightAware ADS-B
05:11AM 37.5115 -85.1179 55° Northeast 487 560 39,000  Level FlightAware ADS-B
05:12AM 37.5495 -85.0477 56° Northeast 487 560 39,000  Level FlightAware ADS-B
05:12AM 37.5879 -84.9750 56° Northeast 485 558 39,000  Level FlightAware ADS-B
05:13AM 37.6263 -84.9046 55° Northeast 485 558 39,000  Level FlightAware ADS-B
05:13AM 37.6654 -84.8299 57° Northeast 484 557 39,000  Level FlightAware ADS-B
05:14AM 37.7035 -84.7596 56° Northeast 484 557 39,000  Level FlightAware ADS-B
05:14AM 37.7424 -84.6871 56° Northeast 483 556 39,000  Level FlightAware ADS-B
05:15AM 37.7807 -84.6145 56° Northeast 484 557 39,000  Level FlightAware ADS-B
05:16AM 37.8289 -84.5229 56° Northeast 485 558 39,000  Level FlightAware ADS-B
05:16AM 37.8703 -84.4451 56° Northeast 484 557 39,000  Level FlightAware ADS-B
05:17AM 37.9081 -84.3748 56° Northeast 483 556 39,000  Level FlightAware ADS-B
05:17AM 37.9575 -84.2810 56° Northeast 480 552 39,000  Level FlightAware ADS-B
05:18AM 37.9940 -84.2110 56° Northeast 478 550 39,000  Level FlightAware
05:18AM 38.0340 -84.1340 57° Northeast 477 549 39,000  Level FlightAware
05:19AM 38.0750 -84.0550 57° Northeast 476 548 39,000  Level FlightAware
05:20AM 38.1170 -83.9760 56° Northeast 475 547 39,000  Level FlightAware
05:20AM 38.1640 -83.8850 57° Northeast 474 545 39,000  Level FlightAware
05:21AM 38.2070 -83.8010 57° Northeast 474 545 39,000  Level FlightAware
05:21AM 38.2520 -83.7150 56° Northeast 473 544 39,000  Level FlightAware
05:22AM 38.2920 -83.6390 56° Northeast 473 544 39,000  Level FlightAware
05:22AM 38.3280 -83.5690 57° Northeast 474 545 39,000  Level FlightAware
05:23AM 38.3770 -83.4730 57° Northeast 476 548 39,000  Level FlightAware
05:24AM 38.4150 -83.4000 56° Northeast 477 549 39,000  Level FlightAware
05:24AM 38.4640 -83.3050 57° Northeast 479 551 39,000  Level FlightAware
05:25AM 38.5000 -83.2320 58° Northeast 481 554 39,000  Level FlightAware
05:25AM 38.5380 -83.1580 57° Northeast 483 556 39,000  Level FlightAware
05:26AM 38.5910 -83.0550 57° Northeast 483 556 39,000  Level FlightAware
05:27AM 38.6350 -82.9680 57° Northeast 483 556 39,000  Level FlightAware
05:27AM 38.6800 -82.8770 58° Northeast 483 556 39,000  Level FlightAware
05:28AM 38.7220 -82.7950 57° Northeast 483 556 39,000  Level FlightAware
05:28AM 38.7660 -82.7060 58° Northeast 483 556 39,000  Level FlightAware
05:29AM 38.8090 -82.6200 57° Northeast 475 547 39,000  Level FlightAware
05:30AM 38.8480 -82.5420 57° Northeast 472 543 39,000  Level FlightAware
05:30AM 38.8870 -82.4640 57° Northeast 475 547 39,000  Level FlightAware
05:31AM 38.9290 -82.3810 57° Northeast 475 547 39,000  Level FlightAware
05:31AM 38.9740 -82.2900 58° Northeast 476 548 39,000  Level FlightAware
05:32AM 39.0140 -82.2090 58° Northeast 479 551 39,000  Level FlightAware
05:33AM 39.0590 -82.1170 58° Northeast 481 554 39,000  Level FlightAware
05:33AM 39.0980 -82.0390 57° Northeast 486 559 39,000  Level FlightAware
05:34AM 39.1380 -81.9560 58° Northeast 485 558 39,000  Level FlightAware
05:34AM 39.1790 -81.8720 58° Northeast 472 543 39,000  Level FlightAware
05:35AM 39.2210 -81.7860 58° Northeast 475 547 39,000  Level FlightAware
05:35AM 39.2650 -81.6960 58° Northeast 481 554 39,000  Level FlightAware
05:36AM 39.3040 -81.6150 58° Northeast 484 557 39,000  Level FlightAware
05:37AM 39.3500 -81.5200 58° Northeast 482 555 39,000  Level FlightAware
05:37AM 39.3870 -81.4440 58° Northeast 482 555 39,000  Level FlightAware
05:38AM 39.4310 -81.3510 58° Northeast 480 552 39,000  Level FlightAware
05:38AM 39.4700 -81.2710 58° Northeast 479 551 39,000  Level FlightAware
05:39AM 39.5090 -81.1880 59° Northeast 480 552 39,000  Level FlightAware
05:40AM 39.5640 -81.0730 58° Northeast 482 555 39,000  Level FlightAware
05:40AM 39.6080 -80.9820 58° Northeast 484 557 39,000  Level FlightAware
05:41AM 39.6550 -80.8820 59° Northeast 486 559 39,000  Level FlightAware
05:42AM 39.6930 -80.8030 58° Northeast 486 559 39,000  Level FlightAware
05:42AM 39.7360 -80.7110 59° Northeast 487 560 39,000  Level FlightAware
05:43AM 39.7760 -80.6270 58° Northeast 492 566 39,000  Level FlightAware
05:44AM 39.8180 -80.5360 59° Northeast 490 564 39,000  Level FlightAware
05:44AM 39.8740 -80.4170 58° Northeast 493 567 39,000  Level FlightAware
05:45AM 39.9150 -80.3280 59° Northeast 493 567 39,000  Level FlightAware
05:46AM 39.9680 -80.2140 59° Northeast 495 570 39,000  Level FlightAware
05:46AM 40.0060 -80.1320 59° Northeast 494 568 39,000  Level FlightAware
05:47AM 40.0610 -80.0120 59° Northeast 493 567 39,000  Level FlightAware
05:47AM 40.1020 -79.9230 59° Northeast 490 564 39,000  Level FlightAware
05:48AM 40.1420 -79.8350 59° Northeast 487 560 39,000  Level FlightAware
05:48AM 40.1830 -79.7460 59° Northeast 487 560 39,000  Level FlightAware
05:49AM 40.2220 -79.6600 59° Northeast 487 560 39,000  Level FlightAware
05:50AM 40.2430 -79.6140 59° Northeast 487 560 39,000  Level FlightAware
05:50AM 40.2870 -79.5180 59° Northeast 487 560 39,000  Level FlightAware
05:51AM 40.3260 -79.4320 59° Northeast 486 559 39,000  Level FlightAware
05:51AM 40.3660 -79.3430 59° Northeast 485 558 39,000  Level FlightAware
05:52AM 40.4140 -79.2370 59° Northeast 486 559 39,000  Level FlightAware
05:53AM 40.4570 -79.1400 60° Northeast 488 562 39,000  Level FlightAware
05:53AM 40.4950 -79.0560 59° Northeast 487 560 39,000  Level FlightAware
05:54AM 40.5430 -78.9480 60° Northeast 488 562 39,000  Level FlightAware
05:54AM 40.5830 -78.8560 60° Northeast 490 564 39,000  Level FlightAware
05:55AM 40.6210 -78.7710 59° Northeast 492 566 39,000  Level FlightAware
05:56AM 40.6680 -78.6650 60° Northeast 492 566 39,000  Level FlightAware
05:56AM 40.7010 -78.5890 60° Northeast 492 566 39,000  Level FlightAware
05:57AM 40.7420 -78.4960 60° Northeast 494 568 39,000  Level FlightAware
05:57AM 40.7830 -78.4020 60° Northeast 495 570 39,000  Level FlightAware
05:58AM 40.8210 -78.3150 60° Northeast 496 571 39,000  Level FlightAware
05:59AM 40.8630 -78.2180 60° Northeast 495 570 39,000  Level FlightAware
05:59AM 40.9000 -78.1310 61° Northeast 495 570 39,000  Level FlightAware
06:00AM 40.9420 -78.0340 60° Northeast 494 568 39,000 -180 Level FlightAware
06:00AM 40.9820 -77.9430 60° Northeast 493 567 38,800 -780 Descending FlightAware
06:01AM 41.0220 -77.8510 60° Northeast 496 571 38,100 -1,140 Descending FlightAware
06:01AM 41.0550 -77.7730 61° Northeast 500 575 37,600 -1,080 Descending FlightAware
06:02AM 41.1080 -77.6510 60° Northeast 501 577 36,800 -900 Descending FlightAware
06:03AM 41.1400 -77.5730 61° Northeast 500 575 36,500 -780 Descending FlightAware
06:03AM 41.1810 -77.4770 60° Northeast 498 573 36,000 -960 Descending FlightAware
06:04AM 41.2270 -77.3700 60° Northeast 501 577 35,300 -960 Descending FlightAware
06:04AM 41.2590 -77.2920 61° Northeast 500 575 34,900 -780 Descending FlightAware
06:05AM 41.2990 -77.1960 61° Northeast 498 573 34,500 -900 Descending FlightAware
06:06AM 41.3390 -77.1020 60° Northeast 499 574 33,900 -1,080 Descending FlightAware
06:06AM 41.3780 -77.0080 61° Northeast 503 579 33,300 -1,140 Descending FlightAware
06:07AM 41.4170 -76.9120 62° Northeast 508 585 32,600 -1,080 Descending FlightAware
06:07AM 41.4570 -76.8190 60° Northeast 508 585 32,100 -900 Descending FlightAware
06:08AM 41.4910 -76.7370 61° Northeast 507 583 31,600 -960 Descending FlightAware
06:08AM 41.5370 -76.6220 62° Northeast 506 582 31,000 -1,200 Descending FlightAware
06:09AM 41.5920 -76.4900 61° Northeast 508 585 30,000 -1,320 Descending FlightAware
06:10AM 41.6330 -76.3880 62° Northeast 508 585 29,300 -1,140 Descending FlightAware
06:10AM 41.6730 -76.2920 61° Northeast 508 585 28,600 -780 Descending FlightAware
06:11AM 41.7060 -76.2120 61° Northeast 509 586 28,400 -1,500 Descending FlightAware
06:12AM 41.7580 -76.0830 62° Northeast 513 590 26,800 -1,980 Descending FlightAware
06:12AM 41.7990 -75.9800 62° Northeast 513 590 26,000 -1,440 Descending FlightAware
06:13AM 41.8370 -75.8870 61° Northeast 514 592 25,100 -1,140 Descending FlightAware
06:14AM 41.8900 -75.7520 62° Northeast 502 578 24,300 -540 Descending FlightAware
06:14AM 41.9250 -75.6650 62° Northeast 502 578 24,300 -240 Level FlightAware
06:15AM 41.9830 -75.5190 62° Northeast 466 536 24,000 -240 Descending FlightAware
06:16AM 42.0190 -75.4320 61° Northeast 472 543 24,000  Level FlightAware
06:16AM 42.0620 -75.3260 61° Northeast 481 554 24,000  Level FlightAware
06:17AM 42.1070 -75.2260 59° Northeast 481 554 24,000 -180 Level FlightAware
06:17AM 42.1400 -75.1550 58° Northeast 478 550 23,800 -1,260 Descending FlightAware
06:18AM 42.1940 -75.0410 57° Northeast 469 540 22,400 -1,980 Descending FlightAware
06:19AM 42.2350 -74.9520 58° Northeast 455 524 21,200 -2,280 Descending FlightAware
06:19AM 42.2740 -74.8680 58° Northeast 432 497 19,800 -2,520 Descending FlightAware
06:20AM 42.3120 -74.7880 57° Northeast 415 478 18,100 -3,360 Descending FlightAware
06:21AM 42.3550 -74.6970 57° Northeast 416 479 15,500 -2,340 Descending FlightAware
06:21AM 42.3840 -74.6360 57° Northeast 416 479 15,300 -180 Descending FlightAware
06:22AM 42.4160 -74.5690 57° Northeast 416 479 15,300  Level FlightAware
06:23AM 42.4570 -74.4830 57° Northeast 416 479 15,300  Level FlightAware
06:23AM 42.4900 -74.4150 57° Northeast 416 479 15,300  Level FlightAware
06:24AM 42.5230 -74.3440 58° Northeast 416 479 15,300  Level FlightAware
06:24AM 42.5550 -74.2770 57° Northeast 416 479 15,300 -5,820 Level FlightAware
06:25AM 42.5414 -74.1789 57° Northeast 310 357 7,600 -6,540 Descending Boston Center
06:26AM 42.5444 -74.1169 86° East 300 345 6,500 -1,980 Descending Boston Center
06:27AM 42.5503 -73.9958 86° East 294 338 4,500 -1,500 Descending Boston Center
06:28AM 42.5556 -73.9031 86° East 278 320 3,600 -900 Descending Boston Center
06:29AM 42.5692 -73.8103 79° East 246 283 2,700 -600 Descending Boston Center
06:30AM 42.6172 -73.8000 North 195 224 2,500 -180 Descending Boston Center
06:31AM 42.6553 -73.7583 39° Northeast 163 188 2,400 -780 Descending Boston Center
06:32AM 42.7236 -73.8081 332° Northwest 128 147 600 -1,260 Descending Boston Center